User: anonymous   Login
Location: Fort Wayne
(41.1310°N, 85.1290°W)
Time: 20:49:44
(UTC-04:00)
Language:

Tiros 1 despin weight - Orbit

View from above orbital plane
View from above orbital plane
View from above satellite
View from above satellite

Ground track
Ground track

The orbit data is extracted from the following two-line orbital elements,

1 00115U 60002D   17232.33021053  .00000094  00000-0  38679-4 0  9997
2 00115  48.1658 195.7213 0034821  19.8410 340.3848 14.83114215 59745
Epoch (UTC): 20 August 2017 07:55:30
Eccentricity: 0.0034821
inclination: 48.1658°
perigee height: 595 km
apogee height: 644 km
right ascension of ascending node: 195.7213°
argument of perigee: 19.8410°
revolutions per day: 14.83114215
mean anomaly at epoch: 340.3848°
orbit number at epoch: 5974

The dashed part of the orbit path shows where the satellite is in the earth's shadow,  

DLR